Location: Nag� el Ma?a??a
(24.0667°N, 32.8833°E)
Time: 23:24:14
(UTC+00:00)

ISS - Visible Passes

Search period start: 10 December 2023 00:00
Search period end: 20 December 2023 00:00
Orbit: 415 x 417 km, 51.6° (Epoch: 10 December)

Date Brightness Start Highest point End Pass type
(mag) Time Alt. Az. Time Alt. Az. Time Alt. Az.
14 Dec -1.5 03:31:41 10° S 03:34:36 28° SE 03:37:31 10° ENE visible
15 Dec -0.5 02:44:14 10° SSE 02:45:59 14° SE 02:47:44 10° E visible
16 Dec -3.8 03:30:23 10° SW 03:33:40 60° NW 03:36:57 10° NNE visible
17 Dec -3.2 02:44:48 56° SE 02:44:55 56° SE 02:48:11 10° NE visible
18 Dec -2.1 03:32:53 17° NW 03:32:53 17° NW 03:35:04 10° N visible
